Location: Stara Lesna
(49.1528°N, 20.2911°E)
Time: 03:42:47
(UTC+02:00)

COBE Rocket - Pass Details

Date: 13 July 2020
Orbit: 679 x 783 km, 97.1° (Epoch: 11 August)

Event Time Altitude Azimuth Distance (km) Brightness Sun altitude
Exits shadow 03:31:31 - 184° (S) 2,526 6.2 -9.9°
Reaches altitude 10° 03:32:09 10° 186° (S) 2,280 6.0 -9.9°
Maximum altitude 03:37:02 50° 262° (W) 939 4.2 -9.4°
Drops below altitude 10° 03:41:49 10° 338° (NNW) 2,232 6.8 -8.9°
Sets 03:44:08 0° 344° (NNW) 3,142 7.7 -8.6°
